| time (UTC) | temp C | wind direction | speed KPH | gust KPH | rain 1hr cm | rain 24hr cm | rain mn cm | humidity % | barometer mb |
| 20260831092549 | 20 | 147 | 0.0 | 3.2 | 0.00 | 0.00 | 0.00 | 81 | 1017.4 |
| 20260831092044 | 20 | 127 | 0.0 | 4.8 | 0.00 | 0.00 | 0.00 | 81 | 1017.4 |
| 20260831091546 | 20 | 194 | 0.0 | 4.8 | 0.00 | 0.00 | 0.00 | 81 | 1017.3 |
| 20260831091044 | 20 | 150 | 0.0 | 4.8 | 0.00 | 0.00 | 0.00 | 79 | 1017.3 |
| 20260831090644 | 20 | 184 | 0.0 | 4.8 | 0.00 | 0.00 | 0.00 | 80 | 1017.2 |
| 20260831090048 | 20 | 90 | 0.0 | 3.2 | 0.00 | 0.00 | 0.00 | 79 | 1017.3 |
| 20260831085545 | 20 | 200 | 0.0 | 4.8 | 0.00 | 0.00 | 0.00 | 80 | 1017.4 |
| 20260831085045 | 21 | 202 | 0.0 | 4.8 | 0.00 | 0.00 | 0.00 | 77 | 1017.3 |
| 20260831084549 | 21 | 178 | 0.0 | 4.8 | 0.00 | 0.00 | 0.00 | 77 | 1017.2 |
| 20260831084044 | 21 | 193 | 0.0 | 3.2 | 0.00 | 0.00 | 0.00 | 78 | 1017.1 |
| 20260831083544 | 21 | 188 | 0.0 | 8.0 | 0.00 | 0.00 | 0.00 | 78 | 1017.1 |
| 20260831083045 | 20 | 227 | 1.6 | 11.3 | 0.00 | 0.00 | 0.00 | 78 | 1017.1 |
| 20260831082543 | 20 | 207 | 4.8 | 11.3 | 0.00 | 0.00 | 0.00 | 80 | 1017.0 |
| 20260831082043 | 20 | 162 | 1.6 | 4.8 | 0.00 | 0.00 | 0.00 | 80 | 1016.9 |
| 20260831081543 | 20 | 166 | 1.6 | 6.4 | 0.00 | 0.00 | 0.00 | 81 | 1016.8 |
| 20260831081042 | 20 | 142 | 1.6 | 9.7 | 0.00 | 0.00 | 0.00 | 82 | 1016.8 |
| 20260831080642 | 20 | 148 | 1.6 | 9.7 | 0.00 | 0.00 | 0.00 | 82 | 1016.7 |
| 20260831080043 | 19 | 152 | 0.0 | 4.8 | 0.00 | 0.00 | 0.00 | 81 | 1016.7 |
| 20260831075543 | 19 | 197 | 0.0 | 4.8 | 0.00 | 0.00 | 0.00 | 82 | 1016.8 |
| 20260831075047 | 19 | 195 | 1.6 | 4.8 | 0.00 | 0.00 | 0.00 | 84 | 1016.8 |
| 20260831074542 | 19 | 187 | 1.6 | 4.8 | 0.00 | 0.00 | 0.00 | 84 | 1016.9 |
| 20260831074041 | 19 | 174 | 1.6 | 4.8 | 0.00 | 0.00 | 0.00 | 83 | 1016.9 |
| 20260831073541 | 19 | 172 | 0.0 | 6.4 | 0.00 | 0.00 | 0.00 | 82 | 1017.0 |
| 20260831073041 | 19 | 189 | 0.0 | 6.4 | 0.00 | 0.00 | 0.00 | 82 | 1017.0 |
| 20260831072542 | 19 | 158 | 1.6 | 8.0 | 0.00 | 0.00 | 0.00 | 82 | 1016.9 |
| 20260831072040 | 19 | 165 | 0.0 | 6.4 | 0.00 | 0.00 | 0.00 | 82 | 1017.0 |
| 20260831071557 | 20 | 116 | 0.0 | 8.0 | 0.00 | 0.00 | 0.00 | 82 | 1016.9 |
| 20260831071042 | 20 | 167 | 1.6 | 9.7 | 0.00 | 0.00 | 0.00 | 82 | 1017.0 |
| 20260831070502 | 20 | 151 | 1.6 | 8.0 | 0.00 | 0.00 | 0.00 | 82 | 1017.2 |
| 20260831070002 | 20 | 130 | 1.6 | 8.0 | 0.00 | 0.00 | 0.00 | 81 | 1017.2 |
| 20260831065503 | 20 | 145 | 1.6 | 8.0 | 0.00 | 0.00 | 0.00 | 81 | 1017.2 |
| 20260831065002 | 20 | 184 | 1.6 | 6.4 | 0.00 | 0.00 | 0.00 | 81 | 1017.2 |
| 20260831064501 | 20 | 154 | 1.6 | 6.4 | 0.00 | 0.00 | 0.00 | 81 | 1017.3 |
| 20260831064102 | 20 | 185 | 0.0 | 6.4 | 0.00 | 0.00 | 0.00 | 81 | 1017.3 |
| 20260831063600 | 20 | 219 | 0.0 | 9.7 | 0.00 | 0.00 | 0.00 | 81 | 1017.4 |
| 20260831063110 | 20 | 134 | 1.6 | 9.7 | 0.00 | 0.00 | 0.00 | 81 | 1017.4 |
| 20260831062559 | 20 | 169 | 1.6 | 8.0 | 0.00 | 0.00 | 0.00 | 80 | 1017.4 |
| 20260831062059 | 20 | 189 | 3.2 | 8.0 | 0.00 | 0.00 | 0.00 | 80 | 1017.4 |
| 20260831061559 | 20 | 154 | 1.6 | 8.0 | 0.00 | 0.00 | 0.00 | 79 | 1017.4 |
| 20260831061101 | 20 | 136 | 1.6 | 8.0 | 0.00 | 0.00 | 0.00 | 80 | 1017.5 |
| 20260831060503 | 20 | 169 | 1.6 | 9.7 | 0.00 | 0.00 | 0.00 | 79 | 1017.4 |
| 20260831060002 | 21 | 138 | 3.2 | 6.4 | 0.00 | 0.00 | 0.00 | 78 | 1017.4 |
| 20260831055600 | 21 | 133 | 1.6 | 4.8 | 0.00 | 0.00 | 0.00 | 77 | 1017.5 |
| 20260831055103 | 21 | 116 | 1.6 | 4.8 | 0.00 | 0.00 | 0.00 | 77 | 1017.5 |
| 20260831054600 | 21 | 115 | 1.6 | 4.8 | 0.00 | 0.00 | 0.00 | 77 | 1017.5 |
| 20260831054103 | 21 | 144 | 1.6 | 6.4 | 0.00 | 0.00 | 0.00 | 77 | 1017.5 |
| 20260831053558 | 21 | 126 | 1.6 | 6.4 | 0.00 | 0.00 | 0.00 | 77 | 1017.4 |
| 20260831053059 | 21 | 156 | 1.6 | 9.7 | 0.00 | 0.00 | 0.00 | 77 | 1017.3 |
| 20260831052556 | 21 | 126 | 3.2 | 9.7 | 0.00 | 0.00 | 0.00 | 76 | 1017.4 |
| 20260831052056 | 21 | 163 | 1.6 | 8.0 | 0.00 | 0.00 | 0.00 | 77 | 1017.3 |
| 20260831051604 | 21 | 132 | 3.2 | 6.4 | 0.00 | 0.00 | 0.00 | 77 | 1017.2 |
| 20260831051055 | 21 | 138 | 3.2 | 8.0 | 0.00 | 0.00 | 0.00 | 77 | 1017.2 |
| 20260831050653 | 21 | 171 | 1.6 | 8.0 | 0.00 | 0.00 | 0.00 | 77 | 1017.1 |
| 20260831050050 | 21 | 198 | 3.2 | 11.3 | 0.00 | 0.00 | 0.00 | 76 | 1017.2 |
| 20260831045551 | 21 | 163 | 1.6 | 11.3 | 0.00 | 0.00 | 0.00 | 76 | 1017.1 |
| 20260831045050 | 22 | 144 | 1.6 | 9.7 | 0.00 | 0.00 | 0.00 | 75 | 1017.2 |
| 20260831044551 | 22 | 127 | 1.6 | 6.4 | 0.00 | 0.00 | 0.00 | 73 | 1017.1 |
| 20260831044051 | 22 | 156 | 0.0 | 6.4 | 0.00 | 0.00 | 0.00 | 71 | 1017.0 |
| 20260831043549 | 23 | 148 | 3.2 | 8.0 | 0.00 | 0.00 | 0.00 | 70 | 1017.0 |
| 20260831043049 | 23 | 174 | 1.6 | 6.4 | 0.00 | 0.00 | 0.00 | 70 | 1016.9 |
| 20260831042549 | 23 | 192 | 1.6 | 11.3 | 0.00 | 0.00 | 0.00 | 69 | 1016.9 |
| 20260831042050 | 23 | 168 | 3.2 | 11.3 | 0.00 | 0.00 | 0.00 | 69 | 1017.0 |
| 20260831041549 | 23 | 169 | 3.2 | 11.3 | 0.00 | 0.00 | 0.00 | 69 | 1016.9 |
| 20260831041048 | 23 | 175 | 3.2 | 9.7 | 0.00 | 0.00 | 0.00 | 69 | 1016.9 |
| 20260831040648 | 23 | 176 | 1.6 | 9.7 | 0.00 | 0.00 | 0.00 | 69 | 1016.8 |
| 20260831040047 | 23 | 171 | 3.2 | 9.7 | 0.00 | 0.00 | 0.00 | 69 | 1016.8 |
| 20260831035546 | 23 | 163 | 1.6 | 9.7 | 0.00 | 0.00 | 0.00 | 68 | 1016.9 |
| 20260831035047 | 23 | 180 | 1.6 | 6.4 | 0.00 | 0.00 | 0.00 | 68 | 1016.9 |
| 20260831034546 | 23 | 111 | 1.6 | 6.4 | 0.00 | 0.00 | 0.00 | 68 | 1017.0 |
| 20260831034046 | 23 | 165 | 1.6 | 9.7 | 0.00 | 0.00 | 0.00 | 67 | 1016.9 |
| 20260831033549 | 23 | 183 | 1.6 | 11.3 | 0.00 | 0.00 | 0.00 | 68 | 1017.0 |
| 20260831033051 | 24 | 144 | 3.2 | 14.5 | 0.00 | 0.00 | 0.00 | 69 | 1016.9 |
| 20260831032546 | 24 | 194 | 3.2 | 8.0 | 0.00 | 0.00 | 0.00 | 67 | 1016.9 |
| 20260831032046 | 24 | 171 | 3.2 | 8.0 | 0.00 | 0.00 | 0.00 | 67 | 1016.9 |
| 20260831031545 | 24 | 145 | 3.2 | 9.7 | 0.00 | 0.00 | 0.00 | 67 | 1017.0 |
| 20260831031045 | 24 | 144 | 3.2 | 8.0 | 0.00 | 0.00 | 0.00 | 68 | 1017.0 |
| 20260831030646 | 24 | 200 | 3.2 | 8.0 | 0.00 | 0.00 | 0.00 | 67 | 1017.0 |
| 20260831030042 | 24 | 169 | 1.6 | 9.7 | 0.00 | 0.00 | 0.00 | 69 | 1016.9 |
| 20260831025542 | 25 | 170 | 4.8 | 11.3 | 0.00 | 0.00 | 0.00 | 68 | 1016.9 |
| 20260831025043 | 25 | 178 | 1.6 | 8.0 | 0.00 | 0.00 | 0.00 | 68 | 1016.8 |
| 20260831024542 | 24 | 199 | 3.2 | 11.3 | 0.00 | 0.00 | 0.00 | 69 | 1016.8 |
| 20260831024043 | 24 | 136 | 1.6 | 9.7 | 0.00 | 0.00 | 0.00 | 71 | 1016.7 |
| 20260831023540 | 25 | 167 | 3.2 | 11.3 | 0.00 | 0.00 | 0.00 | 68 | 1016.7 |
| 20260831023042 | 25 | 176 | 1.6 | 11.3 | 0.00 | 0.00 | 0.00 | 71 | 1016.7 |
| 20260831022542 | 24 | 203 | 3.2 | 12.9 | 0.00 | 0.00 | 0.00 | 72 | 1016.7 |
| 20260831022041 | 23 | 169 | 3.2 | 9.7 | 0.00 | 0.00 | 0.00 | 74 | 1016.6 |
| 20260831021542 | 23 | 76 | 3.2 | 11.3 | 0.00 | 0.00 | 0.00 | 76 | 1016.5 |
| 20260831021041 | 23 | 186 | 1.6 | 8.0 | 0.00 | 0.00 | 0.00 | 76 | 1016.4 |
| 20260831020641 | 23 | 202 | 1.6 | 8.0 | 0.00 | 0.00 | 0.00 | 77 | 1016.4 |
| 20260831020111 | 23 | 166 | 0.0 | 6.4 | 0.00 | 0.00 | 0.00 | 78 | 1016.4 |
| 20260831015554 | 23 | 134 | 0.0 | 4.8 | 0.00 | 0.00 | 0.00 | 78 | 1016.3 |
| 20260831015054 | 23 | 137 | 0.0 | 6.4 | 0.00 | 0.00 | 0.00 | 78 | 1016.2 |
| 20260831014554 | 23 | 165 | 0.0 | 9.7 | 0.00 | 0.00 | 0.00 | 76 | 1016.2 |
| 20260831014054 | 23 | 149 | 3.2 | 11.3 | 0.00 | 0.00 | 0.00 | 75 | 1016.1 |
| 20260831013557 | 23 | 153 | 0.0 | 8.0 | 0.00 | 0.00 | 0.00 | 74 | 1016.1 |
| 20260831013054 | 23 | 156 | 1.6 | 8.0 | 0.00 | 0.00 | 0.00 | 73 | 1016.0 |
| 20260831012554 | 24 | 184 | 1.6 | 8.0 | 0.00 | 0.00 | 0.00 | 73 | 1015.9 |
| 20260831012054 | 24 | 144 | 0.0 | 6.4 | 0.00 | 0.00 | 0.00 | 73 | 1016.0 |
| 20260831011604 | 24 | 182 | 1.6 | 6.4 | 0.00 | 0.00 | 0.00 | 71 | 1015.9 |
| 20260831011052 | 25 | 163 | 0.0 | 6.4 | 0.00 | 0.00 | 0.00 | 70 | 1015.8 |
| 20260831010655 | 25 | 167 | 0.0 | 6.4 | 0.00 | 0.00 | 0.00 | 70 | 1015.8 |
| 20260831010053 | 25 | 168 | 0.0 | 6.4 | 0.00 | 0.00 | 0.00 | 70 | 1015.7 |
| 20260831005556 | 25 | 159 | 1.6 | 6.4 | 0.00 | 0.00 | 0.00 | 69 | 1015.8 |
| 20260831005052 | 26 | 159 | 1.6 | 4.8 | 0.00 | 0.00 | 0.00 | 65 | 1015.7 |
| 20260831004552 | 27 | 162 | 1.6 | 8.0 | 0.00 | 0.00 | 0.00 | 63 | 1015.7 |
| 20260831004051 | 27 | 182 | 1.6 | 8.0 | 0.00 | 0.00 | 0.00 | 61 | 1015.7 |
| 20260831003552 | 27 | 152 | 1.6 | 6.4 | 0.00 | 0.00 | 0.00 | 61 | 1015.5 |
| 20260831003052 | 28 | 157 | 1.6 | 11.3 | 0.00 | 0.00 | 0.00 | 58 | 1015.6 |
| 20260831002551 | 28 | 123 | 3.2 | 14.5 | 0.00 | 0.00 | 0.00 | 56 | 1015.6 |
| 20260831002052 | 28 | 161 | 3.2 | 14.5 | 0.00 | 0.00 | 0.00 | 57 | 1015.5 |
| 20260831001552 | 29 | 163 | 3.2 | 11.3 | 0.00 | 0.00 | 0.00 | 56 | 1015.5 |
| 20260831001052 | 29 | 169 | 1.6 | 12.9 | 0.00 | 0.00 | 0.00 | 55 | 1015.5 |
| 20260831000651 | 30 | 132 | 1.6 | 16.1 | 0.00 | 0.00 | 0.00 | 54 | 1015.5 |
| 20260831000047 | 30 | 175 | 4.8 | 16.1 | 0.00 | 0.00 | 0.00 | 49 | 1015.4 |
| 20260830235546 | 30 | 170 | 3.2 | 12.9 | 0.00 | 0.00 | 0.00 | 51 | 1015.5 |
| 20260830235048 | 30 | 128 | 3.2 | 12.9 | 0.00 | 0.00 | 0.00 | 52 | 1015.6 |
| 20260830234548 | 30 | 178 | 3.2 | 9.7 | 0.00 | 0.00 | 0.00 | 52 | 1015.5 |
| 20260830234049 | 30 | 152 | 4.8 | 11.3 | 0.00 | 0.00 | 0.00 | 50 | 1015.5 |
| 20260830233546 | 30 | 139 | 1.6 | 12.9 | 0.00 | 0.00 | 0.00 | 51 | 1015.5 |
| 20260830233046 | 31 | 110 | 0.0 | 14.5 | 0.00 | 0.00 | 0.00 | 52 | 1015.6 |
| 20260830232546 | 31 | 183 | 4.8 | 14.5 | 0.00 | 0.00 | 0.00 | 47 | 1015.6 |
| 20260830232046 | 31 | 110 | 3.2 | 9.7 | 0.00 | 0.00 | 0.00 | 51 | 1015.6 |
| 20260830231546 | 32 | 207 | 4.8 | 14.5 | 0.00 | 0.00 | 0.00 | 47 | 1015.5 |
| 20260830231044 | 32 | 178 | 3.2 | 14.5 | 0.00 | 0.00 | 0.00 | 46 | 1015.5 |
| 20260830230645 | 32 | 193 | 3.2 | 16.1 | 0.00 | 0.00 | 0.00 | 45 | 1015.4 |
| 20260830230045 | 32 | 149 | 6.4 | 14.5 | 0.00 | 0.00 | 0.00 | 46 | 1015.5 |
| 20260830225545 | 33 | 161 | 4.8 | 17.7 | 0.00 | 0.00 | 0.00 | 43 | 1015.5 |
| 20260830225044 | 32 | 119 | 9.7 | 17.7 | 0.00 | 0.00 | 0.00 | 43 | 1015.5 |
| 20260830224545 | 33 | 167 | 9.7 | 17.7 | 0.00 | 0.00 | 0.00 | 43 | 1015.5 |
| 20260830224045 | 33 | 168 | 6.4 | 19.3 | 0.00 | 0.00 | 0.00 | 43 | 1015.4 |
| 20260830223544 | 33 | 190 | 8.0 | 17.7 | 0.00 | 0.00 | 0.00 | 42 | 1015.5 |
| 20260830223044 | 33 | 140 | 6.4 | 22.5 | 0.00 | 0.00 | 0.00 | 43 | 1015.5 |
| 20260830222543 | 33 | 168 | 6.4 | 17.7 | 0.00 | 0.00 | 0.00 | 43 | 1015.5 |
| 20260830222045 | 33 | 167 | 6.4 | 16.1 | 0.00 | 0.00 | 0.00 | 44 | 1015.4 |
| 20260830221547 | 33 | 196 | 3.2 | 20.9 | 0.00 | 0.00 | 0.00 | 43 | 1015.5 |
| 20260830221043 | 33 | 154 | 9.7 | 20.9 | 0.00 | 0.00 | 0.00 | 42 | 1015.5 |
| 20260830220646 | 33 | 126 | 8.0 | 19.3 | 0.00 | 0.00 | 0.00 | 42 | 1015.5 |
| 20260830220047 | 34 | 182 | 8.0 | 24.1 | 0.00 | 0.00 | 0.00 | 42 | 1015.5 |
| 20260830215541 | 34 | 164 | 8.0 | 24.1 | 0.00 | 0.00 | 0.00 | 42 | 1015.5 |
| 20260830215041 | 34 | 106 | 6.4 | 17.7 | 0.00 | 0.00 | 0.00 | 43 | 1015.5 |
| 20260830214544 | 33 | 103 | 6.4 | 17.7 | 0.00 | 0.00 | 0.00 | 43 | 1015.6 |
| 20260830214040 | 33 | 163 | 6.4 | 14.5 | 0.00 | 0.00 | 0.00 | 45 | 1015.6 |
| 20260830213538 | 33 | 167 | 6.4 | 14.5 | 0.00 | 0.00 | 0.00 | 44 | 1015.8 |
| 20260830213049 | 33 | 88 | 6.4 | 16.1 | 0.00 | 0.00 | 0.00 | 45 | 1015.8 |
| 20260830212539 | 33 | 159 | 6.4 | 17.7 | 0.00 | 0.00 | 0.00 | 48 | 1015.8 |
| 20260830212039 | 34 | 143 | 3.2 | 14.5 | 0.00 | 0.00 | 0.00 | 46 | 1015.9 |
| 20260830211552 | 34 | 183 | 3.2 | 17.7 | 0.00 | 0.00 | 0.00 | 45 | 1015.9 |
| 20260830211037 | 35 | 163 | 6.4 | 12.9 | 0.00 | 0.00 | 0.00 | 41 | 1015.9 |
| 20260830210639 | 35 | 126 | 3.2 | 11.3 | 0.00 | 0.00 | 0.00 | 41 | 1015.8 |
| 20260830205557 | 35 | 153 | 4.8 | 14.5 | 0.00 | 0.00 | 0.00 | 42 | 1015.8 |
| 20260830205101 | 35 | 159 | 6.4 | 22.5 | 0.00 | 0.00 | 0.00 | 42 | 1015.9 |
| 20260830204602 | 34 | 200 | 4.8 | 22.5 | 0.00 | 0.00 | 0.00 | 44 | 1015.8 |
| 20260830204101 | 35 | 153 | 3.2 | 17.7 | 0.00 | 0.00 | 0.00 | 46 | 1015.8 |
| 20260830203557 | 35 | 168 | 4.8 | 17.7 | 0.00 | 0.00 | 0.00 | 42 | 1015.9 |
| 20260830203102 | 35 | 115 | 6.4 | 17.7 | 0.00 | 0.00 | 0.00 | 41 | 1016.0 |
| 20260830202557 | 35 | 113 | 8.0 | 19.3 | 0.00 | 0.00 | 0.00 | 43 | 1015.9 |
| 20260830202103 | 35 | 208 | 9.7 | 20.9 | 0.00 | 0.00 | 0.00 | 41 | 1016.0 |
| 20260830201601 | 35 | 54 | 9.7 | 20.9 | 0.00 | 0.00 | 0.00 | 44 | 1016.0 |
| 20260830201055 | 35 | 151 | 4.8 | 12.9 | 0.00 | 0.00 | 0.00 | 43 | 1016.1 |
| 20260830200656 | 35 | 163 | 3.2 | 14.5 | 0.00 | 0.00 | 0.00 | 43 | 1016.1 |
| 20260830200056 | 35 | 170 | 4.8 | 14.5 | 0.00 | 0.00 | 0.00 | 41 | 1016.2 |
| 20260830195555 | 35 | 132 | 4.8 | 14.5 | 0.00 | 0.00 | 0.00 | 41 | 1016.3 |
| 20260830195056 | 34 | 169 | 3.2 | 11.3 | 0.00 | 0.00 | 0.00 | 47 | 1016.2 |
| 20260830194554 | 33 | 54 | 1.6 | 12.9 | 0.00 | 0.00 | 0.00 | 49 | 1016.3 |
| 20260830194054 | 34 | 81 | 3.2 | 16.1 | 0.00 | 0.00 | 0.00 | 44 | 1016.4 |
| 20260830193553 | 35 | 58 | 8.0 | 14.5 | 0.00 | 0.00 | 0.00 | 41 | 1016.4 |
| 20260830193054 | 36 | 177 | 4.8 | 11.3 | 0.00 | 0.00 | 0.00 | 42 | 1016.5 |
| 20260830192552 | 35 | 202 | 4.8 | 11.3 | 0.00 | 0.00 | 0.00 | 44 | 1016.5 |
| 20260830192053 | 35 | 114 | 3.2 | 12.9 | 0.00 | 0.00 | 0.00 | 45 | 1016.6 |
| 20260830191554 | 35 | 82 | 6.4 | 12.9 | 0.00 | 0.00 | 0.00 | 42 | 1016.4 |
| 20260830191050 | 35 | 210 | 3.2 | 12.9 | 0.00 | 0.00 | 0.00 | 41 | 1016.6 |
| 20260830190504 | 35 | 138 | 4.8 | 12.9 | 0.00 | 0.00 | 0.00 | 40 | 1016.7 |
| 20260830190003 | 35 | 202 | 4.8 | 12.9 | 0.00 | 0.00 | 0.00 | 41 | 1016.7 |
| 20260830185503 | 35 | 192 | 3.2 | 11.3 | 0.00 | 0.00 | 0.00 | 41 | 1016.8 |
| 20260830185001 | 35 | 71 | 1.6 | 11.3 | 0.00 | 0.00 | 0.00 | 44 | 1016.8 |
| 20260830184503 | 35 | 205 | 0.0 | 11.3 | 0.00 | 0.00 | 0.00 | 42 | 1016.9 |
| 20260830184102 | 34 | 117 | 1.6 | 11.3 | 0.00 | 0.00 | 0.00 | 45 | 1016.9 |
| 20260830184002 | 34 | 90 | 4.8 | 11.3 | 0.00 | 0.00 | 0.00 | 42 | 1017.0 |
| 20260830183600 | 35 | 193 | 4.8 | 12.9 | 0.00 | 0.00 | 0.00 | 41 | 1017.0 |
| 20260830183102 | 34 | 215 | 1.6 | 11.3 | 0.00 | 0.00 | 0.00 | 41 | 1017.1 |
| 20260830182558 | 35 | 169 | 0.0 | 11.3 | 0.00 | 0.00 | 0.00 | 43 | 1017.1 |
| 20260830182058 | 34 | 207 | 3.2 | 12.9 | 0.00 | 0.00 | 0.00 | 49 | 1017.1 |
| 20260830181559 | 34 | 186 | 4.8 | 12.9 | 0.00 | 0.00 | 0.00 | 42 | 1017.2 |
| 20260830181055 | 33 | 167 | 6.4 | 14.5 | 0.00 | 0.00 | 0.00 | 45 | 1017.3 |
| 20260830180658 | 34 | 126 | 4.8 | 16.1 | 0.00 | 0.00 | 0.00 | 45 | 1017.3 |
| 20260830180059 | 33 | 219 | 1.6 | 16.1 | 0.00 | 0.00 | 0.00 | 42 | 1017.5 |
| 20260830175558 | 33 | 201 | 6.4 | 16.1 | 0.00 | 0.00 | 0.00 | 42 | 1017.6 |
| 20260830175058 | 33 | 235 | 6.4 | 17.7 | 0.00 | 0.00 | 0.00 | 43 | 1017.6 |
| 20260830174601 | 33 | 199 | 3.2 | 17.7 | 0.00 | 0.00 | 0.00 | 48 | 1017.7 |
| 20260830174059 | 33 | 310 | 3.2 | 16.1 | 0.00 | 0.00 | 0.00 | 44 | 1017.9 |
| 20260830173557 | 33 | 159 | 3.2 | 12.9 | 0.00 | 0.00 | 0.00 | 44 | 1017.9 |
| 20260830173054 | 33 | 161 | 3.2 | 12.9 | 0.00 | 0.00 | 0.00 | 46 | 1017.9 |
| 20260830172558 | 33 | 155 | 4.8 | 14.5 | 0.00 | 0.00 | 0.00 | 43 | 1018.0 |
| 20260830172053 | 33 | 198 | 6.4 | 19.3 | 0.00 | 0.00 | 0.00 | 44 | 1018.1 |
| 20260830171553 | 33 | 206 | 8.0 | 16.1 | 0.00 | 0.00 | 0.00 | 44 | 1018.2 |
| 20260830171052 | 33 | 163 | 4.8 | 17.7 | 0.00 | 0.00 | 0.00 | 45 | 1018.3 |
| 20260830170505 | 33 | 163 | 6.4 | 19.3 | 0.00 | 0.00 | 0.00 | 43 | 1018.3 |
| 20260830170010 | 33 | 296 | 4.8 | 14.5 | 0.00 | 0.00 | 0.00 | 47 | 1018.2 |
| 20260830165502 | 32 | 159 | 6.4 | 14.5 | 0.00 | 0.00 | 0.00 | 45 | 1018.2 |
| 20260830165002 | 32 | 177 | 4.8 | 12.9 | 0.00 | 0.00 | 0.00 | 48 | 1018.3 |
| 20260830164601 | 32 | 87 | 8.0 | 12.9 | 0.00 | 0.00 | 0.00 | 46 | 1018.4 |
| 20260830164101 | 32 | 202 | 4.8 | 19.3 | 0.00 | 0.00 | 0.00 | 46 | 1018.5 |
| 20260830163559 | 31 | 211 | 9.7 | 19.3 | 0.00 | 0.00 | 0.00 | 46 | 1018.5 |
| 20260830163058 | 31 | 235 | 8.0 | 17.7 | 0.00 | 0.00 | 0.00 | 47 | 1018.5 |
| 20260830162555 | 31 | 205 | 8.0 | 17.7 | 0.00 | 0.00 | 0.00 | 47 | 1018.6 |
| 20260830162052 | 31 | 205 | 4.8 | 12.9 | 0.00 | 0.00 | 0.00 | 49 | 1018.4 |
| 20260830161605 | 31 | 153 | 4.8 | 16.1 | 0.00 | 0.00 | 0.00 | 52 | 1018.5 |
| 20260830161053 | 30 | 163 | 4.8 | 17.7 | 0.00 | 0.00 | 0.00 | 50 | 1018.7 |
| 20260830160501 | 30 | 177 | 4.8 | 24.1 | 0.00 | 0.00 | 0.00 | 52 | 1018.6 |
| 20260830160059 | 30 | 184 | 9.7 | 24.1 | 0.00 | 0.00 | 0.00 | 50 | 1018.6 |
| 20260830155558 | 30 | 189 | 6.4 | 19.3 | 0.00 | 0.00 | 0.00 | 52 | 1018.7 |
| 20260830155059 | 30 | 163 | 3.2 | 16.1 | 0.00 | 0.00 | 0.00 | 53 | 1018.7 |
| 20260830154555 | 30 | 248 | 3.2 | 22.5 | 0.00 | 0.00 | 0.00 | 52 | 1018.6 |
| 20260830154054 | 29 | 173 | 4.8 | 29.0 | 0.00 | 0.00 | 0.00 | 54 | 1018.7 |
| 20260830153553 | 29 | 236 | 14.5 | 29.0 | 0.00 | 0.00 | 0.00 | 50 | 1018.8 |
| 20260830153059 | 29 | 175 | 3.2 | 24.1 | 0.00 | 0.00 | 0.00 | 53 | 1018.8 |
| 20260830152551 | 29 | 157 | 8.0 | 24.1 | 0.00 | 0.00 | 0.00 | 51 | 1018.6 |
| 20260830152049 | 28 | 184 | 8.0 | 25.7 | 0.00 | 0.00 | 0.00 | 51 | 1018.6 |
| 20260830151551 | 28 | 173 | 6.4 | 25.7 | 0.00 | 0.00 | 0.00 | 52 | 1018.5 |
| 20260830151046 | 28 | 130 | 6.4 | 20.9 | 0.00 | 0.00 | 0.00 | 52 | 1018.5 |
| 20260830150644 | 28 | 197 | 8.0 | 20.9 | 0.00 | 0.00 | 0.00 | 50 | 1018.6 |
| 20260830150053 | 28 | 182 | 8.0 | 19.3 | 0.00 | 0.00 | 0.00 | 52 | 1018.5 |
| 20260830145550 | 28 | 119 | 3.2 | 25.7 | 0.00 | 0.00 | 0.00 | 54 | 1018.5 |
| 20260830145049 | 28 | 214 | 12.9 | 25.7 | 0.00 | 0.00 | 0.00 | 53 | 1018.6 |
| 20260830144548 | 27 | 192 | 4.8 | 24.1 | 0.00 | 0.00 | 0.00 | 53 | 1018.5 |
| 20260830144047 | 27 | 180 | 6.4 | 22.5 | 0.00 | 0.00 | 0.00 | 53 | 1018.5 |
| 20260830143546 | 27 | 157 | 14.5 | 22.5 | 0.00 | 0.00 | 0.00 | 53 | 1018.5 |
| 20260830143055 | 27 | 236 | 6.4 | 24.1 | 0.00 | 0.00 | 0.00 | 54 | 1018.5 |
| 20260830142543 | 27 | 220 | 4.8 | 17.7 | 0.00 | 0.00 | 0.00 | 55 | 1018.6 |
| 20260830142044 | 26 | 202 | 6.4 | 16.1 | 0.00 | 0.00 | 0.00 | 58 | 1018.5 |
| 20260830141540 | 26 | 178 | 3.2 | 20.9 | 0.00 | 0.00 | 0.00 | 58 | 1018.6 |
| 20260830141038 | 26 | 244 | 4.8 | 22.5 | 0.00 | 0.00 | 0.00 | 59 | 1018.6 |
| 20260830140509 | 25 | 186 | 4.8 | 12.9 | 0.00 | 0.00 | 0.00 | 62 | 1018.7 |
| 20260830140008 | 25 | 176 | 3.2 | 11.3 | 0.00 | 0.00 | 0.00 | 62 | 1018.6 |
| 20260830135507 | 24 | 225 | 3.2 | 16.1 | 0.00 | 0.00 | 0.00 | 68 | 1018.6 |
| 20260830135006 | 23 | 178 | 4.8 | 16.1 | 0.00 | 0.00 | 0.00 | 70 | 1018.7 |
| 20260830134504 | 22 | 197 | 6.4 | 16.1 | 0.00 | 0.00 | 0.00 | 75 | 1018.7 |
| 20260830134003 | 22 | 182 | 4.8 | 12.9 | 0.00 | 0.00 | 0.00 | 75 | 1018.7 |
| 20260830133502 | 21 | 194 | 1.6 | 11.3 | 0.00 | 0.00 | 0.00 | 83 | 1018.8 |
| 20260830133103 | 20 | 184 | 1.6 | 9.7 | 0.00 | 0.00 | 0.00 | 87 | 1018.9 |
| 20260830132559 | 19 | 181 | 1.6 | 11.3 | 0.00 | 0.00 | 0.00 | 89 | 1018.9 |
| 20260830132057 | 18 | 133 | 1.6 | 11.3 | 0.00 | 0.00 | 0.00 | 90 | 1018.9 |
| 20260830131556 | 18 | 155 | 0.0 | 6.4 | 0.00 | 0.00 | 0.00 | 91 | 1018.9 |
| 20260830131056 | 18 | 159 | 1.6 | 4.8 | 0.00 | 0.00 | 0.00 | 92 | 1018.9 |
| 20260830130655 | 17 | 152 | 0.0 | 3.2 | 0.00 | 0.00 | 0.00 | 92 | 1019.1 |
| 20260830130112 | 17 | 169 | 0.0 | 3.2 | 0.00 | 0.00 | 0.00 | 92 | 1019.1 |
| 20260830125557 | 17 | 166 | 0.0 | 3.2 | 0.00 | 0.00 | 0.00 | 92 | 1019.2 |
| 20260830125057 | 17 | 162 | 0.0 | 4.8 | 0.00 | 0.00 | 0.00 | 92 | 1019.2 |
| 20260830124556 | 16 | 162 | 0.0 | 4.8 | 0.00 | 0.00 | 0.00 | 92 | 1019.2 |
| 20260830124102 | 16 | 136 | 0.0 | 1.6 | 0.00 | 0.00 | 0.00 | 93 | 1019.2 |
| 20260830123556 | 16 | 136 | 0.0 | 1.6 | 0.00 | 0.00 | 0.00 | 93 | 1019.1 |
| 20260830123055 | 16 | 136 | 0.0 | 3.2 | 0.00 | 0.00 | 0.00 | 93 | 1019.1 |
| 20260830122554 | 16 | 142 | 0.0 | 3.2 | 0.00 | 0.00 | 0.00 | 92 | 1019.1 |
| 20260830122055 | 16 | 154 | 0.0 | 1.6 | 0.00 | 0.00 | 0.00 | 92 | 1019.1 |
| 20260830121553 | 16 | 133 | 0.0 | 1.6 | 0.00 | 0.00 | 0.00 | 92 | 1019.0 |
| 20260830121052 | 16 | 120 | 0.0 | 1.6 | 0.00 | 0.00 | 0.00 | 92 | 1019.1 |
| 20260830120521 | 16 | 119 | 0.0 | 1.6 | 0.00 | 0.00 | 0.00 | 91 | 1019.0 |
| 20260830120021 | 16 | 163 | 0.0 | 1.6 | 0.00 | 0.00 | 0.00 | 91 | 1018.9 |
| 20260830115521 | 16 | 163 | 0.0 | 1.6 | 0.00 | 0.00 | 0.00 | 92 | 1018.9 |
| 20260830115020 | 16 | 163 | 0.0 | 3.2 | 0.00 | 0.00 | 0.00 | 92 | 1018.8 |
| 20260830114526 | 16 | 163 | 0.0 | 3.2 | 0.00 | 0.00 | 0.00 | 92 | 1018.8 |
| 20260830114016 | 16 | 145 | 0.0 | 3.2 | 0.00 | 0.00 | 0.00 | 92 | 1018.6 |
| 20260830113551 | 16 | 176 | 0.0 | 3.2 | 0.00 | 0.00 | 0.00 | 92 | 1018.3 |
| 20260830113051 | 16 | 156 | 1.6 | 3.2 | 0.00 | 0.00 | 0.00 | 91 | 1018.3 |
| 20260830112548 | 16 | 167 | 0.0 | 1.6 | 0.00 | 0.00 | 0.00 | 91 | 1018.3 |
| 20260830112050 | 16 | 167 | 0.0 | 3.2 | 0.00 | 0.00 | 0.00 | 91 | 1018.3 |
| 20260830111548 | 16 | 184 | 0.0 | 4.8 | 0.00 | 0.00 | 0.00 | 91 | 1018.2 |
| 20260830111047 | 16 | 140 | 0.0 | 6.4 | 0.00 | 0.00 | 0.00 | 91 | 1018.2 |
| 20260830110646 | 16 | 153 | 0.0 | 6.4 | 0.00 | 0.00 | 0.00 | 91 | 1018.3 |
| 20260830110049 | 16 | 185 | 1.6 | 4.8 | 0.00 | 0.00 | 0.00 | 90 | 1018.1 |
| 20260830105549 | 16 | 164 | 0.0 | 4.8 | 0.00 | 0.03 | 0.00 | 90 | 1018.2 |
| 20260830105047 | 16 | 165 | 0.0 | 4.8 | 0.00 | 0.03 | 0.00 | 90 | 1018.2 |
| 20260830104547 | 17 | 151 | 1.6 | 3.2 | 0.00 | 0.03 | 0.00 | 89 | 1018.2 |
| 20260830104047 | 17 | 190 | 0.0 | 6.4 | 0.00 | 0.03 | 0.00 | 89 | 1018.2 |
| 20260830103551 | 17 | 190 | 1.6 | 6.4 | 0.00 | 0.03 | 0.00 | 89 | 1018.2 |
| 20260830103049 | 17 | 178 | 0.0 | 8.0 | 0.00 | 0.03 | 0.00 | 90 | 1018.2 |
| 20260830102545 | 17 | 173 | 1.6 | 8.0 | 0.00 | 0.03 | 0.00 | 90 | 1018.1 |
| 20260830102049 | 17 | 173 | 1.6 | 8.0 | 0.00 | 0.03 | 0.00 | 90 | 1018.1 |
| 20260830101552 | 17 | 90 | 1.6 | 8.0 | 0.00 | 0.03 | 0.00 | 90 | 1018.0 |
| 20260830101045 | 17 | 153 | 0.0 | 6.4 | 0.00 | 0.03 | 0.00 | 90 | 1018.0 |
| 20260830100644 | 17 | 169 | 0.0 | 8.0 | 0.00 | 0.03 | 0.00 | 90 | 1017.9 |
| 20260830100048 | 17 | 117 | 0.0 | 8.0 | 0.00 | 0.03 | 0.00 | 90 | 1017.9 |
| 20260830095547 | 17 | 153 | 3.2 | 9.7 | 0.00 | 0.03 | 0.00 | 90 | 1017.9 |
| 20260830095044 | 17 | 193 | 1.6 | 9.7 | 0.00 | 0.03 | 0.00 | 90 | 1017.9 |
| 20260830094546 | 17 | 148 | 3.2 | 6.4 | 0.00 | 0.03 | 0.00 | 90 | 1017.8 |
| 20260830094048 | 17 | 130 | 1.6 | 9.7 | 0.00 | 0.03 | 0.00 | 90 | 1017.9 |
| 20260830093544 | 17 | 135 | 3.2 | 9.7 | 0.00 | 0.03 | 0.00 | 90 | 1017.9 |
| 20260830093043 | 17 | 142 | 1.6 | 9.7 | 0.00 | 0.03 | 0.00 | 91 | 1018.0 |